星链-35119 (STARLINK-35119)

导读

STARLINK-35119是美国SpaceX星链星座的成员卫星,于2025年9月5日发射入轨,属于低轨互联网通信卫星。该卫星延续星链星座设计,依托低轨轨道优势,为全球提供高速宽带互联网服务,尤其覆盖偏远、网络基础设施薄弱区域,进一步扩充了星链星座的全球服务覆盖范围与通信容量。

基本信息
目录编号:
65508
目录名称:
STARLINK-35119
国际标识:
2025-198S
轨道中心:
EARTH
卫星名称:
星链-35119
卫星全名:
星链-35119 (STARLINK-35119)
卫星状态:
在轨 (已飞行364 天)
发射日期:
2025-09-05 UTC
国别 :
美国 (US)
星等 :
--
轨道信息
数据来源 国际轨道数据
星历时间: 2026-09-02T09:31:55+0800
2天前
查看轨道信息
半长轴: 6840.846km
偏心率: 0.000131
轨道倾角: 53.158°
近地点辐角 85.509°
升交点赤经 168.222°
平近点角 274.606°
近地点: 461.812km
远地点: 463.606km
周期: 93.848分钟
每日圈数: 15.343983
详细信息
固有亮度:
5
最大亮度:
2.5
卫星平台:
Starlink V1.0
覆盖范围:
全球
运营商:
太空探索技术公司
运营商所在国:
美国
制造商(研发单位):
太空探索技术公司
制造商所在国:
美国
使用方式:
暂无
卫星简介
Starlink 计划是 SpaceX 推出的全球卫星互联网项目,通过发射低轨道卫星,为全球尤其是偏远地区提供高速、低延迟的互联网服务。自 2019 年起,Starlink 已部署数千颗卫星,旨在缩小全球数字鸿沟,推动互联网普及。该项目还为军事、航空等行业提供通信支持,带来广泛经济效益。
2D轨道图
3D轨道图
轨道高度分析图
轨道倾角分析图
轨道综合分析图
查看轨道综合分析图
交会数据列表
事件ID 空间交会对象 最接近时刻(TCA) 交会距离 交会风险概率(CRP) 交会风险指数(CRI) 操作
CDM_260905-032605-893606-550821
2026-09-05T
03:26:48+0000
0.480 km
远距离
1.096878E-4 高风险 0.76
CDM_260904-011005-248906-550821
2026-09-04T
01:10:42+0000
2.927 km
极远距离
1.235582E-6 低风险 0.37
CDM_260830-011805-175306-550821
2026-08-30T
01:18:37+0000
2.846 km
极远距离
8.508244E-7 极低风险 0.34